CZ-6A DEB, 61796

Orbit data source: Space-Track

CZ-6A DEB, 61796 is space debris in LEO originally from a launch on Tue, 06 Aug 2024 UTC launched from the Taiyaun Space Center, China (TSC). Debris objects in space refer to the collection of defunct objects orbiting the Earth. Examples of debris include non-operational satellites, rocket bodies, and fragments generated from explosions, collisions, or faulty payload assembly.

Loading next visibility...
Identifier
61796, 2024-140ABL
Orbit
LEO
Country
Flag of CNCN / PRC
Related business
Manufacturer
SAST
Mission
Spacecraft
Bus & Motor
Unknown
Mass
Unknown
Launch date (UTC)
2024-08-06 (1 year ago)
Launch vehicle
Unknown
Launch site
Taiyaun Space Center, China (TSC)
Object type
Payload
Rocket body
Debris
Shape & HBR
Unknown shape, 0.1 m
Radar Cross Section
Small (<0.1 m²)

Expand to show TLE details & history
Last TLE update: 10 hours ago

TLE from 10 hours ago
0 CZ-6A DEB
1 61796U 24140ABL 25343.10570087  .00001571  00000-0  80532-3 0  9990
2 61796  88.7981 285.3656 0076742 105.6299 255.3373 14.13422310 66039
Epoch: 2025-12-09T02:32Z
TLE epoch observation values (Epoch: 2025-12-09T02:32:12.555Z)
Latitude
0.00001°
Longitude
169.21813°
Altitude
865.164 km
Speed
7.412 km/s
True Right ascension
19h 01m 27s
True Declination
0° 00' 00"
Sunlit
Object was in daylight at epoch
Visualization orbit readout
Latitude
Unknown
Longitude
Unknown
Altitude
Unknown
Speed
Unknown
Apparent Right ascension
Unknown
Apparent Declination
Unknown
Sunlit
N/A
Visualization observer readout
Local Sidereal Time
10:16:49
Azimuth
Unknown
Elevation
Unknown
Doppler factor
Unknown
Orbital elements
Apogee altitude
900.075 km
Perigee altitude
789.217 km
Semi-major axis
7,222.783 km
Eccentricity
0.00767
Inclination
88.7981°
RAAN
285.3656°
Arg. of periapsis
105.6299°
True anomaly
254.48863°
Mean anomaly
255.3373°
Eccentric anomaly
254.91276°
Mean motion
3.53579 °/min
Orbital period
101.82 mins
BSTAR
0.00080532
Loading maneuver chart data...
Computing Atmospheric mass density...

Documentation

Showing up to 5 results
|